Location: Montreal
(45.5000°N, 73.5833°W)
Time: 13:53:58
(UTC-05:00)

Vanguard 1 Rocket - Visible Passes

Search period start: 16 December 2017 00:00
Search period end: 26 December 2017 00:00
Orbit: 656 x 4222 km, 34.3° (Epoch: 15 December)

Date Brightness Start Highest point End Pass type
(mag) Time Alt. Az. Time Alt. Az. Time Alt. Az.
16 Dec 9.8 16:21:01 10° SW 16:29:07 41° SSE 16:43:55 10° E visible
16 Dec 10.0 18:44:16 10° WSW 18:55:49 55° S 19:07:28 29° ESE visible
16 Dec 10.5 21:09:42 10° W 21:24:46 44° SSW 21:24:46 44° SSW visible
16 Dec 11.5 23:39:32 10° W 23:42:05 14° WSW 23:42:05 14° WSW visible
17 Dec 9.8 17:33:54 10° WSW 17:43:30 51° S 18:00:31 12° ESE visible
17 Dec 10.3 19:58:18 10° W 20:11:30 49° SSW 20:17:50 41° SSE visible
17 Dec 11.0 22:25:32 10° W 22:35:09 28° SW 22:35:09 28° SW visible
18 Dec 9.7 16:24:00 10° SW 16:31:52 43° SSE 16:46:29 10° E visible
18 Dec 10.0 18:47:29 10° WSW 18:58:38 52° S 19:11:00 25° SE visible
18 Dec 10.7 21:13:07 10° W 21:27:22 38° SSW 21:28:19 38° SSW visible
18 Dec 11.6 23:44:50 10° WSW 23:45:39 11° WSW 23:45:39 11° WSW visible
19 Dec 9.8 17:37:05 10° WSW 17:46:22 51° S 18:04:01 10° ESE visible
19 Dec 10.4 20:01:38 10° W 20:14:14 44° SSW 20:21:36 35° SSE visible
19 Dec 11.2 22:29:35 10° W 22:38:56 23° SW 22:38:56 23° SW visible
20 Dec 9.6 16:27:05 10° SW 16:34:43 45° SSE 16:49:01 10° E visible
20 Dec 10.1 18:50:45 10° W 19:01:29 48° S 19:15:02 21° SE visible
20 Dec 10.8 21:16:44 10° W 21:29:58 32° SSW 21:32:23 31° SSW visible
21 Dec 9.8 17:40:19 10° WSW 17:49:18 49° S 18:06:15 10° ESE visible
21 Dec 10.5 20:05:04 10° W 20:16:59 39° SSW 20:26:01 28° SSE visible
21 Dec 11.3 22:34:22 10° WSW 22:43:23 18° SW 22:43:23 18° SW visible
22 Dec 9.6 16:30:15 10° WSW 16:37:40 45° S 16:51:31 10° ESE visible
22 Dec 10.2 18:54:07 10° W 19:04:23 43° SSW 19:19:51 15° SE visible
22 Dec 11.0 21:20:42 10° W 21:32:36 26° SSW 21:37:15 24° SSW visible
23 Dec 9.8 17:43:37 10° WSW 17:52:15 46° S 18:08:22 10° ESE visible
23 Dec 10.7 20:08:41 10° W 20:19:47 32° SSW 20:31:26 19° SSE visible
23 Dec 11.5 22:40:51 10° WSW 22:48:06 13° SW 22:48:53 13° SW visible
24 Dec 9.6 16:33:30 10° WSW 16:40:39 44° S 16:53:56 10° ESE visible
24 Dec 10.3 18:57:34 10° W 19:07:18 38° SSW 19:24:15 10° SE visible
24 Dec 11.2 21:25:12 10° WSW 21:35:18 20° SW 21:43:36 15° S visible
25 Dec 9.9 17:47:00 10° WSW 17:55:16 41° S 18:10:20 10° SE visible
25 Dec 10.9 20:12:34 10° WSW 20:22:39 26° SSW 20:37:59 10° SSE visible
